Location: Unspecified
(0.0000°N, 0.0000°E)
Time: 13:49:40
(UTC+00:00)

N. Korean satellite - Pass Details

Date: 30 March 2020
Orbit: 454 x 507 km, 97.2° (Epoch: 01 April)

Event Time Altitude Azimuth Distance (km) Brightness Sun altitude
Rises 04:41:34 0° 37° (NE) 2,452 10.7 -20.7°
Reaches altitude 10° 04:44:05 10° 58° (ENE) 1,584 10.1 -20.0°
Maximum altitude 04:46:25 18° 101° (ESE) 1,203 9.5 -19.5°
Drops below altitude 10° 04:48:45 10° 145° (SE) 1,596 9.6 -18.9°
Sets 04:51:17 0° 165° (SSE) 2,479 10.3 -18.2°
